Theta_e
361 360 358 358 360 361 354 348 343 341 343 345 347 347 348 351 352 353 353 352 351 352 353 353 353 352 352 352 350 350 353 354 354 354 353 354 354 352 353 354 354 354 354 354 355 356 356 355 355 354 354 353 355 356 355 354 356 357 357 357 357 356 356
359 356 357 358 363 364 357 352 353 349 345 346 346 346 348 351 353 353 353 353 352 352 352 353 354 353 352 352 351 350 352 353 353 353 353 353 354 353 353 354 354 355 354 353 354 355 355 355 355 354 355 355 355 356 355 354 355 358 359 359 357 357 357
355 354 359 362 366 367 357 351 352 353 351 349 347 347 348 350 353 353 352 353 353 352 352 353 354 353 352 353 353 351 351 353 353 353 353 353 354 354 354 355 355 355 355 354 354 355 355 356 355 354 355 355 355 356 357 356 355 357 359 360 359 358 358
353 354 356 358 361 360 354 349 349 351 352 351 350 350 350 351 353 353 352 353 353 353 353 354 355 355 353 353 355 353 352 353 353 353 354 354 353 354 355 356 357 357 357 356 355 356 356 356 357 356 356 356 356 355 357 358 357 358 359 360 359 359 358
354 353 353 355 357 358 355 351 349 351 352 352 351 353 353 353 353 354 353 353 353 353 351 352 354 355 355 353 354 354 354 353 353 353 354 354 353 354 355 355 357 358 358 357 356 356 357 358 358 357 356 357 356 354 356 359 359 358 357 359 360 358 357
350 350 350 351 354 356 357 356 353 352 351 351 352 353 353 354 355 354 355 355 354 354 353 353 355 355 356 355 353 354 355 355 354 353 353 354 354 355 356 356 356 357 357 358 358 357 357 358 357 356 357 357 356 354 355 358 358 356 355 357 358 359 357
347 346 345 346 350 354 355 356 356 353 351 352 353 353 352 353 356 356 356 355 356 356 356 356 357 357 357 356 354 354 356 356 355 353 353 354 355 355 356 356 356 356 357 357 358 357 356 356 355 355 355 356 355 355 355 356 356 355 355 356 356 358 358
344 344 343 343 348 353 353 354 355 355 354 354 355 355 354 352 353 356 358 357 356 356 356 357 358 358 358 358 357 356 356 356 355 354 354 354 355 355 355 356 356 355 355 356 357 357 355 354 354 354 354 355 355 355 355 356 356 355 356 357 357 357 356
342 343 342 341 345 351 354 353 354 355 355 355 355 355 355 353 352 354 357 358 358 357 357 357 357 358 358 359 359 358 357 357 356 355 355 355 356 355 355 355 355 354 354 354 354 355 355 354 352 353 353 354 355 355 355 356 356 356 355 356 357 357 356
342 342 341 340 342 347 351 352 352 353 353 353 354 354 354 353 352 353 354 355 357 358 358 357 357 358 360 360 361 360 359 359 357 356 355 355 355 355 355 355 355 354 352 352 352 352 354 354 352 352 352 353 353 353 353 354 355 355 355 354 355 355 355
340 341 341 340 340 341 345 348 349 350 351 351 352 352 353 352 351 351 351 352 355 357 357 356 357 357 355 355 358 359 358 357 357 357 356 356 356 355 356 356 355 354 352 351 351 351 352 353 352 351 351 352 352 351 351 351 351 353 354 354 353 352 353
339 340 340 340 339 338 339 342 343 347 349 350 351 351 352 353 351 350 351 351 353 354 353 354 355 356 353 352 352 351 351 353 356 358 357 357 356 356 356 356 355 354 352 351 351 350 351 352 352 351 351 351 351 350 350 350 350 351 352 353 353 352 351
338 339 339 339 338 337 337 339 339 341 344 347 350 351 352 353 353 353 353 353 353 353 352 352 353 353 352 351 350 348 349 351 354 357 358 357 357 356 355 355 355 354 353 351 351 351 350 351 351 351 350 350 350 350 349 349 350 351 350 351 352 352 351
338 338 338 337 337 336 337 338 338 339 340 341 344 348 350 351 352 353 353 353 353 353 353 353 353 353 351 350 348 348 349 350 350 352 355 357 358 357 355 354 353 352 351 351 351 351 350 350 351 350 350 349 349 349 348 348 349 350 350 350 350 350 350
338 337 337 337 337 336 336 336 336 337 338 338 339 342 345 347 349 350 350 350 351 352 353 354 354 353 352 350 348 348 350 349 349 351 353 354 355 356 355 354 352 351 350 350 350 350 351 350 350 350 350 350 349 348 348 348 348 349 349 350 349 349 349
337 336 336 336 336 336 336 335 335 335 336 337 337 339 340 342 345 347 347 348 349 349 351 354 355 353 354 353 352 352 352 352 353 354 354 354 354 355 354 353 353 351 351 351 351 351 350 350 350 349 349 349 349 349 348 348 348 348 348 348 348 347 348
336 336 335 335 335 335 335 336 335 335 336 336 336 337 338 340 342 343 343 345 346 346 347 349 350 352 353 355 356 356 355 353 353 354 354 354 354 354 354 353 353 351 350 350 351 352 351 350 350 350 349 348 348 349 349 348 347 347 347 348 348 347 347
335 334 334 334 334 334 334 334 334 333 334 335 336 336 336 339 340 341 341 341 342 344 344 344 344 345 347 349 352 356 357 356 355 355 356 356 356 355 355 354 354 353 352 351 351 352 353 352 350 350 349 349 348 348 349 349 349 348 347 347 347 347 347
333 332 333 333 333 333 332 333 333 332 332 334 335 335 336 338 340 340 339 338 338 341 341 341 342 342 343 344 345 348 351 354 354 354 353 354 354 354 355 355 355 355 355 355 353 353 354 354 352 351 350 349 348 347 347 348 349 349 349 348 348 347 348
332 332 331 332 332 330 329 330 331 329 329 331 334 335 335 337 339 337 334 332 334 337 338 338 339 339 340 341 341 343 344 346 348 350 350 350 351 351 352 352 353 354 354 355 355 355 355 355 354 353 351 350 348 347 347 348 348 349 349 349 349 348 347
331 331 331 333 332 328 326 328 329 326 324 325 329 334 335 336 337 336 333 331 331 333 334 333 334 335 337 338 339 341 342 342 343 344 346 347 348 349 349 349 350 351 351 352 354 354 355 355 355 355 354 352 350 349 348 348 349 350 350 349 349 349 349
330 330 330 329 328 324 323 326 326 324 323 324 328 333 334 334 335 335 334 333 331 330 330 329 329 331 334 336 336 338 341 343 343 342 343 344 345 346 347 347 348 349 349 351 352 354 354 354 354 354 355 354 353 351 350 349 349 350 352 351 350 349 350
328 328 326 324 321 321 322 324 323 323 325 328 330 333 333 332 333 334 334 333 332 332 331 330 329 328 331 334 335 335 337 339 339 339 341 343 344 344 343 344 344 345 346 349 351 353 353 354 354 354 354 354 354 354 353 352 351 350 351 352 352 350 350
325 323 322 320 321 322 322 322 322 322 324 326 327 330 331 330 330 332 332 332 332 333 332 332 330 329 330 332 333 333 334 335 334 334 337 340 341 342 342 343 344 343 343 346 349 351 353 354 355 354 355 354 354 354 354 353 353 352 352 352 353 353 352
321 320 320 320 321 322 321 321 322 322 323 323 324 326 328 328 328 328 328 328 329 330 332 333 331 330 329 331 331 330 330 331 332 333 334 335 336 337 339 342 345 345 344 344 345 348 351 353 355 355 355 355 355 355 355 355 355 355 355 354 354 355 354
318 319 321 321 321 321 321 321 321 322 322 322 323 323 324 325 325 326 326 326 326 327 329 332 332 329 328 331 332 331 328 326 327 331 332 332 334 336 336 337 340 343 345 346 345 346 348 350 353 355 355 355 356 355 356 356 356 356 356 356 356 356 356
319 321 320 320 320 320 320 320 321 321 321 321 321 322 323 324 324 325 325 325 325 325 326 328 329 327 327 330 332 332 329 326 323 325 329 331 333 333 333 334 335 338 343 347 348 347 345 344 347 351 352 353 354 355 355 356 357 357 358 358 357 357 356
319 320 319 319 319 319 319 319 320 321 320 320 321 321 321 322 323 323 324 323 323 323 324 325 325 325 327 330 331 331 330 327 323 320 325 331 332 330 332 333 333 336 343 347 346 344 342 340 340 341 342 344 347 351 352 352 353 355 356 357 357 357 356
318 318 318 318 317 318 318 318 319 320 320 320 320 320 320 320 321 321 321 321 321 321 322 324 324 325 327 329 329 329 328 328 325 321 323 328 329 329 332 333 332 337 344 349 347 344 342 340 339 337 336 335 336 339 341 343 345 348 351 354 355 355 355
318 318 318 317 317 317 318 318 319 319 319 319 318 319 319 319 319 319 319 319 319 319 320 322 323 324 325 325 326 327 328 328 326 324 324 326 327 330 332 332 332 335 340 343 343 340 337 337 338 338 337 335 331 329 329 332 336 338 342 347 350 352 354
317 318 317 317 317 317 318 318 319 318 318 318 318 317 318 317 318 318 318 318 319 319 319 320 321 322 323 324 324 326 328 328 326 326 326 326 328 330 331 330 331 331 331 332 334 333 333 335 336 336 335 334 333 330 329 329 330 330 331 335 341 346 349
317 317 317 317 317 318 318 318 318 317 317 317 317 317 317 317 317 318 318 318 319 319 319 319 319 321 322 323 324 325 326 327 327 326 326 327 329 329 329 329 328 327 327 328 331 332 332 333 334 335 334 333 332 332 331 331 330 329 328 329 334 338 341
317 317 317 316 317 317 317 317 317 316 316 316 317 317 317 317 317 317 318 318 318 318 318 318 319 319 320 322 323 324 324 326 327 326 326 327 328 328 328 328 326 325 326 328 330 331 331 331 332 333 333 333 333 333 332 331 331 330 330 329 332 335 337
316 316 316 316 317 316 316 316 316 315 316 317 317 317 316 316 316 316 317 318 318 318 319 318 318 319 319 319 321 322 322 323 325 326 326 326 327 327 327 326 324 324 325 327 328 329 330 330 331 331 331 332 333 332 332 331 330 330 330 330 331 332 335
315 316 316 315 316 315 314 314 315 315 316 316 316 316 315 315 315 316 317 318 318 318 318 318 318 318 318 318 319 320 321 322 323 326 326 326 326 325 324 323 322 322 322 323 325 328 329 329 328 328 329 329 330 329 330 329 329 329 330 331 331 332 334
315 315 314 314 314 313 313 314 315 316 316 315 314 315 316 317 318 319 320 320 320 319 319 319 319 319 319 319 319 319 320 321 323 325 327 326 325 324 324 323 322 321 321 324 326 328 329 328 327 327 327 324 323 323 325 327 329 330 331 332 333 333 334
315 314 314 313 313 313 314 315 316 315 314 314 315 317 318 320 320 320 320 320 320 320 320 319 320 320 320 319 319 318 319 320 321 324 325 325 324 324 324 323 322 321 323 325 326 326 326 325 325 325 323 320 320 323 326 329 330 330 330 330 330 332 334
315 314 313 313 312 314 315 315 315 314 314 315 317 318 318 319 319 319 318 318 318 319 319 319 320 320 321 320 320 319 319 320 321 323 325 326 325 324 324 324 324 324 325 326 326 325 324 323 322 320 318 320 324 327 328 329 329 328 328 329 330 332 334
Wind_Speed
3 5 7 8 6 5 3 5 14 21 25 27 29 30 31 31 32 33 33 34 33 31 29 28 28 27 27 26 26 26 24 21 21 21 21 21 19 21 24 24 22 21 20 19 18 17 14 12 12 12 11 10 9 9 9 9 9 9 9 9 10 10 11
4 8 9 7 5 5 7 10 7 9 16 22 27 29 30 31 33 33 34 34 34 33 31 30 29 29 28 27 26 26 26 23 20 20 22 23 21 21 23 23 22 22 20 18 17 16 14 13 13 13 12 11 10 9 10 10 10 9 9 9 10 10 11
7 9 8 7 4 4 1 11 15 10 9 13 18 19 23 30 33 34 35 34 33 33 32 31 30 30 29 28 26 27 28 26 22 21 22 24 24 22 22 22 21 21 20 18 18 17 15 14 14 13 13 13 12 11 11 11 11 10 10 11 11 11 12
7 8 7 6 5 5 5 9 5 4 7 13 16 14 15 22 28 32 34 35 34 33 33 32 32 31 30 30 29 28 29 28 26 24 22 22 23 23 22 22 21 20 20 19 19 19 17 16 16 15 15 15 14 13 12 12 12 12 12 12 12 12 13
7 7 6 4 2 1 7 12 10 10 3 8 13 14 13 15 20 25 28 31 34 35 36 35 34 33 32 31 30 29 29 29 28 26 24 23 22 22 22 22 22 21 20 19 19 20 19 18 18 17 18 18 16 14 14 14 12 13 14 14 13 12 13
7 7 6 4 4 3 6 12 12 10 6 5 7 9 12 14 16 21 23 25 29 31 32 33 34 33 32 32 31 30 30 29 29 28 26 24 23 23 22 22 22 22 21 19 18 20 20 19 18 17 18 20 18 16 16 15 14 13 13 15 14 12 12
7 7 7 5 5 5 7 10 10 8 8 8 7 7 8 13 14 19 24 25 25 25 26 26 28 29 31 31 31 30 30 29 29 28 27 26 24 24 23 22 22 22 22 21 19 20 20 19 19 18 17 20 19 17 16 16 15 13 13 14 15 14 13
8 7 7 6 6 7 8 11 12 13 12 11 10 8 10 12 12 13 20 25 25 26 27 26 26 27 29 29 29 30 30 29 29 28 27 26 25 25 25 24 23 22 22 22 21 21 21 21 21 20 19 19 20 18 17 16 16 15 14 15 16 15 14
9 8 8 7 7 8 11 12 14 15 15 14 14 13 15 15 12 13 19 23 24 26 27 28 29 29 30 30 29 29 29 29 29 28 27 27 26 26 26 25 24 24 23 24 23 23 22 22 22 22 22 21 21 20 19 18 18 17 16 17 18 17 16
9 9 9 8 8 9 12 13 14 15 15 14 14 14 15 16 15 15 16 18 22 23 22 24 25 22 23 28 30 29 29 28 28 29 28 28 27 27 26 26 26 26 25 25 24 24 24 23 22 22 24 24 24 22 21 21 20 19 19 19 19 19 19
8 9 9 10 9 9 11 12 13 14 14 14 14 13 14 15 14 10 8 10 16 19 18 18 18 13 11 18 24 24 23 23 25 27 29 29 28 27 27 26 25 26 27 26 25 25 24 24 24 23 24 25 25 23 21 21 22 22 22 21 20 20 19
7 8 10 10 9 8 9 11 12 13 14 14 14 14 12 12 14 13 10 9 11 13 11 12 16 16 14 17 18 14 12 15 20 23 26 27 27 27 27 26 24 24 26 27 26 25 24 25 26 25 25 25 25 24 22 20 20 21 22 23 23 22 21
8 8 10 11 9 8 8 10 12 15 15 13 13 14 13 11 13 14 12 9 7 6 6 6 9 13 15 16 15 13 15 21 23 21 21 23 23 24 25 26 25 23 24 26 27 27 26 25 26 27 27 26 26 25 24 23 22 22 22 22 24 24 23
10 10 11 11 10 9 9 9 11 14 16 15 14 14 15 15 13 13 11 8 6 6 7 7 8 9 9 11 13 14 20 26 26 22 19 19 20 21 21 22 22 20 20 22 25 28 28 27 28 28 29 29 29 28 27 26 25 25 24 24 25 25 26
12 11 12 12 10 9 9 9 10 13 16 18 18 16 15 15 15 15 14 11 8 8 7 6 7 9 9 11 14 16 19 24 24 22 20 20 20 20 20 20 19 17 17 16 19 24 27 28 28 29 30 31 31 30 30 29 28 28 27 27 27 27 28
13 12 11 11 10 8 8 10 13 15 17 18 19 18 18 17 16 17 19 17 13 10 10 12 13 13 11 11 12 13 17 19 18 17 18 19 19 18 20 21 21 19 17 14 12 14 20 25 27 27 29 31 32 33 32 32 31 30 29 29 28 28 29
12 11 10 10 10 8 8 10 12 14 16 17 17 18 19 19 19 20 21 22 20 15 13 16 18 17 14 11 10 10 10 11 10 11 12 13 14 16 17 20 21 20 18 16 13 11 13 19 25 27 27 28 30 32 33 34 33 32 31 31 30 30 31
12 11 10 9 9 8 8 8 11 14 15 16 17 19 20 20 20 22 22 22 21 18 17 18 18 17 14 12 10 9 9 9 8 8 8 8 8 10 12 13 15 16 16 16 16 14 13 15 19 24 27 27 27 29 32 34 35 34 34 33 32 32 32
12 11 10 9 8 8 8 10 12 15 16 16 17 19 21 21 21 21 21 21 20 19 18 17 16 16 14 13 12 10 8 9 9 8 7 6 5 6 6 7 8 9 10 11 14 16 17 16 16 18 22 24 24 24 27 30 33 35 36 35 34 34 34
11 11 10 8 7 7 10 13 14 16 18 17 16 18 20 21 21 20 19 19 18 18 18 17 15 15 15 14 13 11 9 8 7 7 7 5 4 4 4 3 3 3 5 7 10 13 15 17 18 18 18 20 21 20 21 22 25 29 33 36 37 36 36
10 11 10 7 7 8 11 13 14 15 17 17 15 16 18 19 18 17 17 18 18 17 18 18 16 15 14 15 15 12 10 10 10 9 8 7 6 4 4 4 2 1 1 3 6 9 11 14 16 17 18 19 19 19 20 20 20 21 24 29 34 36 37
10 10 9 8 9 10 13 14 14 15 18 20 17 16 17 17 16 15 15 16 17 17 17 18 18 16 14 15 15 14 12 10 11 12 11 11 10 9 8 7 6 5 4 4 4 6 8 10 13 15 16 18 19 20 22 23 22 21 19 20 25 32 36
13 13 13 12 13 15 18 18 18 20 24 24 21 17 15 16 17 15 14 14 14 15 15 17 19 18 15 14 15 15 14 12 12 13 12 12 13 13 12 11 10 8 7 6 6 6 6 7 9 11 13 15 17 20 22 24 25 24 21 19 20 24 31
17 17 16 15 16 19 22 22 22 23 25 24 22 18 15 16 16 16 15 13 12 13 13 14 16 17 15 14 13 13 13 13 13 13 13 13 13 14 15 14 14 13 10 8 7 7 7 7 7 8 10 12 14 16 19 22 23 21 21 21 21 21 25
17 17 16 16 19 21 22 21 21 22 22 22 20 18 16 15 15 16 15 13 13 13 12 11 12 14 14 13 13 13 13 13 13 13 13 14 14 15 15 14 14 15 13 10 8 9 8 7 7 8 9 10 11 13 15 17 18 17 17 19 19 20 22
15 17 17 19 20 20 20 20 21 20 20 20 17 15 14 14 14 15 15 13 13 15 16 12 11 12 12 11 11 12 13 14 14 14 14 15 16 15 15 15 14 14 14 12 9 9 10 8 7 8 9 9 11 13 14 15 15 14 14 16 16 18 20
19 20 20 20 19 19 20 20 20 19 18 16 15 14 13 12 13 14 14 13 13 16 16 14 11 10 11 10 10 11 13 14 15 15 15 16 17 16 15 16 16 15 12 11 10 10 10 10 9 9 10 10 11 12 13 14 15 14 13 14 15 16 18
21 21 21 20 19 18 18 18 18 17 16 14 14 14 12 12 13 13 12 12 14 15 14 13 12 11 11 11 9 10 13 15 15 16 16 16 17 18 17 16 16 16 12 8 9 12 13 13 13 13 13 13 12 13 14 15 15 15 14 14 15 16 18
19 19 19 20 18 16 15 16 15 15 15 13 12 13 12 12 12 12 12 11 12 13 12 11 11 10 11 11 10 11 13 14 14 15 15 16 18 19 17 16 15 16 14 11 10 13 15 17 17 17 17 17 16 16 16 17 16 15 14 14 15 16 17
19 19 18 18 16 14 13 14 13 12 13 12 11 11 12 12 11 11 11 11 11 12 12 11 10 10 10 11 11 12 11 11 13 13 13 15 17 16 15 15 15 14 15 14 13 15 17 17 17 17 17 19 19 19 19 19 19 17 16 16 16 16 15
18 19 17 16 14 12 12 12 11 10 10 10 10 10 10 10 10 9 9 10 10 11 12 12 11 11 11 11 12 12 11 11 12 11 12 14 15 14 13 14 15 14 15 15 15 17 18 18 16 16 17 18 20 21 21 21 21 20 18 18 17 17 15
17 17 16 14 13 11 10 9 9 9 8 8 8 9 9 9 9 10 10 9 9 10 11 12 11 11 11 12 12 12 12 12 11 10 11 13 12 11 11 13 15 16 16 17 18 19 20 19 18 18 19 20 20 21 22 24 24 23 21 20 19 18 18
16 14 12 10 10 9 8 7 7 7 6 5 6 7 8 9 10 11 11 11 10 10 10 11 11 12 12 13 13 13 13 13 12 11 10 10 10 10 11 12 15 16 17 18 19 20 20 21 20 20 20 21 22 22 24 26 26 24 24 24 24 24 23
16 15 12 10 9 8 7 6 5 3 3 5 6 7 8 9 10 11 11 11 11 10 11 11 11 12 13 14 14 14 14 15 14 13 12 11 9 10 12 14 16 17 16 16 18 20 21 20 20 20 20 20 22 23 25 28 28 26 25 27 29 28 26
17 16 14 12 10 7 4 2 0 1 4 6 7 8 8 9 10 11 11 10 10 11 11 11 11 12 13 13 14 15 15 16 16 16 14 13 11 11 12 13 16 17 17 16 14 15 17 18 18 19 20 20 22 23 24 28 30 28 28 28 28 26 25
19 17 14 11 7 3 2 2 2 4 7 7 6 7 7 8 9 10 10 10 9 9 10 11 11 12 12 13 14 15 16 16 17 17 14 11 11 11 11 12 13 14 14 14 13 12 13 15 17 18 20 23 24 23 23 25 28 28 27 26 25 24 23
19 16 12 8 4 4 4 6 6 7 7 6 7 7 7 9 10 10 11 11 10 9 9 10 11 12 13 14 15 16 16 16 17 18 15 12 11 12 12 13 13 12 11 11 12 13 15 16 17 19 21 23 25 24 22 22 23 25 27 27 26 25 22
18 14 10 7 6 7 9 11 9 7 6 6 7 7 7 9 10 10 10 11 11 10 10 10 12 13 13 14 15 16 16 16 17 17 16 14 13 13 14 14 14 12 11 11 13 15 17 19 20 23 23 21 19 21 23 23 25 27 29 28 26 23 20
Wind_Direction
61 52 39 32 31 28 34 149 169 170 169 174 177 177 176 177 179 180 182 187 189 189 191 194 196 197 199 201 203 199 196 197 200 201 200 196 194 193 195 197 197 198 199 200 204 209 214 216 212 208 208 214 217 213 216 217 212 214 223 235 240 236 234
96 82 75 65 42 358 0 32 66 144 163 174 180 179 178 178 179 181 183 186 189 190 192 195 197 199 200 202 203 200 197 198 203 206 203 200 198 196 195 198 199 200 201 204 205 206 212 216 212 206 204 211 218 217 219 221 216 219 232 238 235 230 231
90 90 109 124 139 212 245 38 34 49 100 149 170 173 177 181 181 183 185 186 187 190 191 195 199 200 202 202 202 201 198 198 203 206 206 203 201 199 198 200 202 200 202 205 206 208 211 214 213 209 208 214 218 216 218 222 222 226 233 232 227 225 231
98 105 121 142 173 198 123 82 29 2 93 126 138 139 159 178 184 184 186 187 187 187 191 195 199 201 202 203 203 203 201 200 203 205 205 203 202 202 202 204 205 204 205 206 206 209 212 213 214 214 217 219 220 218 217 221 226 229 230 229 228 229 233
90 95 97 109 145 160 110 131 188 224 185 122 121 120 128 155 181 186 186 189 190 191 194 196 198 200 202 204 205 205 205 204 205 206 206 204 203 204 206 208 208 208 209 208 206 208 209 213 215 218 220 219 220 220 219 222 229 231 228 227 230 234 236
80 77 70 64 73 70 107 133 167 191 178 129 134 141 124 125 159 180 186 192 194 196 197 196 197 199 201 204 205 206 207 207 209 210 210 208 205 206 208 209 210 211 212 212 209 206 207 212 214 214 215 215 217 218 218 222 228 229 226 225 228 233 234
76 70 62 49 68 81 85 97 112 128 127 123 142 160 127 109 130 164 183 192 195 196 195 193 197 199 202 204 205 207 208 209 210 212 213 214 212 211 211 211 213 213 214 217 215 208 207 211 214 213 212 212 214 215 217 221 225 226 226 225 228 232 233
76 69 61 51 68 83 80 83 89 93 101 105 106 118 122 114 113 145 177 190 194 196 194 193 196 202 205 206 206 208 210 211 211 211 213 215 217 217 216 216 216 214 214 218 219 216 213 215 217 217 216 215 214 215 218 223 226 228 228 230 232 235 236
79 70 60 52 59 79 83 83 82 83 87 88 89 96 111 128 150 174 184 190 194 196 195 194 198 204 206 207 208 211 212 213 212 212 212 214 217 220 220 221 220 216 215 218 220 220 221 222 221 220 220 220 218 218 222 224 225 228 231 234 237 239 241
82 75 66 57 51 66 78 78 75 74 73 74 84 92 101 124 159 183 188 193 199 199 195 194 198 203 205 205 207 210 210 211 212 212 212 213 216 220 222 225 225 222 221 221 221 222 223 224 224 224 224 223 222 223 226 226 226 228 233 237 240 241 245
83 80 72 64 56 58 67 70 71 73 72 72 78 88 100 115 134 157 185 205 208 203 197 195 197 202 213 211 209 207 204 203 207 210 212 213 215 217 221 227 230 228 226 225 223 224 224 225 226 227 226 224 224 225 225 226 226 227 231 237 240 242 245
88 85 79 72 63 59 63 66 68 70 73 76 79 84 95 116 133 150 180 212 219 211 204 206 206 209 222 225 222 224 219 207 205 207 209 212 215 217 221 225 231 233 231 229 228 227 227 227 227 229 229 227 226 227 228 227 226 226 231 236 239 241 243
94 89 85 78 69 66 65 64 65 68 70 72 76 79 80 95 126 144 160 184 207 202 192 201 205 211 224 228 227 238 240 227 217 208 206 209 213 218 221 224 227 231 231 232 231 230 231 230 229 229 230 231 231 233 234 233 230 230 232 235 238 240 242
98 91 85 81 74 71 69 66 65 68 69 66 67 75 77 78 91 110 122 134 143 145 160 178 179 188 217 223 216 223 234 235 229 218 210 209 210 213 216 217 220 223 226 230 232 232 232 233 232 231 231 232 234 236 238 237 234 233 233 235 237 239 242
97 90 87 87 84 77 74 72 67 65 67 66 65 69 73 73 77 84 88 92 107 123 126 126 141 163 190 207 208 214 226 233 231 221 214 214 213 213 214 214 214 215 218 223 230 233 232 232 234 233 232 233 234 236 237 237 237 236 236 237 237 238 241
99 93 89 89 86 82 81 78 73 69 67 66 64 64 63 64 71 77 78 80 85 94 92 87 98 120 143 168 186 199 210 219 220 215 213 217 219 222 224 222 220 222 223 224 231 238 237 235 234 234 234 235 235 235 236 236 238 239 240 241 241 241 241
96 91 86 82 79 78 79 80 76 70 67 66 65 65 62 62 66 70 71 73 76 79 82 82 87 99 113 129 145 160 177 191 197 199 202 208 214 220 224 224 227 232 233 232 236 246 245 241 238 236 236 236 236 236 236 237 239 241 242 244 245 245 244
97 91 85 80 76 72 71 74 74 69 68 70 70 68 66 67 70 71 71 74 77 80 81 79 78 84 93 101 109 122 131 137 146 160 169 177 192 204 211 218 227 235 239 238 241 246 247 246 242 238 237 236 237 238 237 238 240 242 243 245 246 247 246
105 100 93 82 76 71 70 76 76 71 69 73 75 72 71 75 78 78 77 78 83 86 87 85 78 73 74 76 75 80 98 112 114 110 114 132 155 177 189 201 217 232 242 242 242 244 248 249 247 243 239 236 236 238 239 241 243 243 244 246 248 248 247
110 108 102 93 85 77 77 83 85 79 72 72 80 82 79 80 83 81 76 73 77 82 83 83 80 71 66 65 61 56 57 64 75 76 71 73 90 111 128 145 176 217 240 241 238 239 242 245 246 247 245 241 238 237 238 241 244 246 247 248 249 250 250
114 112 106 104 101 82 77 83 89 86 72 65 77 92 91 88 86 82 74 68 68 72 71 69 70 68 63 60 57 54 53 48 45 44 42 36 34 39 48 53 55 45 291 268 255 248 245 247 248 249 248 248 248 246 243 242 243 246 248 249 250 251 250
121 115 111 116 109 88 81 85 86 77 65 63 79 99 98 92 92 90 82 72 66 64 60 55 53 53 54 54 51 50 53 50 38 33 32 31 28 26 22 13 4 355 337 321 303 281 269 264 261 259 254 251 253 255 255 252 250 250 250 252 253 251 249
115 113 112 111 99 87 86 87 79 71 68 71 81 94 93 87 88 90 86 79 70 62 56 47 42 40 44 46 44 43 45 42 33 27 26 25 23 22 21 15 7 358 342 329 325 316 303 293 283 276 269 261 256 258 260 259 257 257 256 256 256 251 247
107 108 108 101 89 84 85 84 77 74 75 74 74 78 83 82 82 81 77 72 66 60 57 50 39 31 32 34 34 36 38 36 31 28 25 22 16 11 8 6 7 6 358 343 336 330 319 309 302 295 289 280 271 267 267 265 264 266 265 262 261 259 252
104 104 101 95 88 84 83 81 76 73 72 69 66 68 74 78 77 71 64 57 50 42 41 44 36 23 18 20 21 24 27 27 24 22 22 19 14 9 3 358 358 360 359 353 345 342 337 323 310 307 305 300 291 284 279 277 276 277 275 271 270 269 264
104 101 97 92 88 84 80 77 74 69 65 63 62 61 64 69 67 59 52 49 44 31 22 22 23 14 7 5 5 6 12 18 20 18 17 13 10 9 9 5 359 353 353 355 353 348 346 343 333 323 318 312 303 294 289 290 292 287 282 282 281 279 276
99 97 94 90 89 86 81 76 73 70 66 62 59 57 58 62 59 52 47 45 38 25 15 14 14 4 355 354 353 352 358 7 12 12 10 9 9 6 4 6 7 1 354 356 5 7 3 360 357 351 344 336 322 309 301 299 299 294 286 285 286 286 285
95 93 90 88 87 86 82 76 73 71 65 58 55 54 53 56 55 47 40 36 27 14 7 10 11 3 358 1 359 351 350 352 358 3 3 4 4 1 358 2 9 10 4 2 15 24 24 19 14 9 3 353 335 320 316 313 306 299 291 288 288 290 290
97 93 90 87 84 82 82 78 73 70 65 57 52 49 43 43 44 35 26 21 11 360 355 360 3 1 4 8 3 353 347 344 347 353 355 356 358 358 3 11 15 16 18 20 22 24 21 17 13 10 6 357 341 329 328 329 323 314 308 303 301 300 300
99 96 93 87 82 79 79 76 69 64 59 50 45 43 36 33 31 23 16 11 1 350 346 346 347 347 351 354 352 350 346 339 339 341 342 347 352 357 7 16 19 22 23 20 18 15 10 6 4 2 359 353 344 339 340 341 338 331 324 319 312 307 309
102 100 94 87 83 79 72 70 65 57 47 36 33 33 27 24 20 12 9 6 359 352 348 342 336 334 338 340 341 345 344 332 327 329 331 337 345 353 360 4 7 11 11 7 5 2 358 356 354 351 349 345 340 338 338 339 339 337 335 333 324 312 308
100 98 92 84 83 81 77 73 67 58 46 30 22 18 11 8 5 359 357 354 350 350 350 346 339 333 333 334 332 335 339 333 323 318 322 331 339 347 352 354 356 357 358 358 358 356 353 350 344 340 339 339 337 335 334 333 333 334 337 342 340 330 321
100 95 90 88 88 89 90 83 68 55 41 21 14 14 8 3 1 358 356 352 346 341 338 339 341 336 331 332 331 329 332 334 327 311 307 321 336 340 339 343 347 350 352 352 352 350 347 346 343 338 334 331 330 331 330 329 330 333 337 340 338 336 333
111 106 103 105 107 103 94 83 68 47 36 32 29 22 7 355 350 347 347 349 350 344 334 331 334 334 330 328 327 326 328 332 330 318 304 304 315 324 327 332 335 336 338 341 342 340 338 340 344 345 340 334 330 329 328 326 326 330 334 334 331 329 329
118 115 113 112 110 103 89 75 47 81 71 54 32 13 356 344 339 337 336 339 342 339 333 327 324 325 328 325 323 324 326 328 331 328 311 294 293 304 312 318 322 320 319 323 330 334 336 342 347 347 344 338 333 330 327 322 321 324 328 328 326 325 325
124 123 123 116 111 124 176 204 156 99 79 55 28 11 359 353 356 357 355 351 345 338 335 333 327 322 324 326 325 325 325 327 332 334 319 293 291 303 306 310 316 315 314 321 326 326 328 333 336 336 335 332 328 325 321 317 318 324 331 331 329 327 326
136 133 129 124 133 169 160 135 115 95 71 47 35 27 19 18 22 21 15 11 10 3 355 350 344 335 328 325 321 320 322 324 328 331 323 303 298 307 307 310 318 318 315 320 321 314 311 314 317 319 322 324 325 324 322 322 325 330 333 332 331 332 331
147 145 142 148 161 152 131 119 108 91 71 59 48 37 34 34 31 22 15 11 10 9 7 3 358 348 338 330 322 317 317 319 322 325 319 304 301 310 314 316 323 324 316 308 304 303 306 311 315 318 321 324 329 332 332 332 332 331 329 327 328 331 333